Flag for Poland Weather past 2 weeks in Koszalin, Poland

Now
40 °F

Fog.


Feels Like: 40 °F
Forecast: 39 / 47 °F
Wind: 2 mph from Southwest

Location: Koszalin

Current Time: Mar 27, 2015 at 5:27:39 AM

Latest Report: Mar 27, 2015 at 3:00 AM


Visibility: 5 mi

Pressure: 29.77 "Hg

Humidity: 89%

Dew point: 37 °F

Location of KoszalinLocation

Historic Weather in Koszalin — Graph

°F

Koszalin temperature yesterday

Maximum temperature yesterday: 53 °F (at 10:00 AM)
Minimum temperature yesterday: 41 °F (at 8:00 PM)
Average temperature yesterday: 48 °F

Past Weeks' High & Low Weather Summary

 TemperatureHumidityPressure
High60 °F (Mar 25, 2:00 PM)96% (Mar 13, 5:00 AM)30.68 "Hg (Mar 13, 5:00 AM)
Low29 °F (Mar 22, 6:00 AM)23% (Mar 18, 2:00 PM)29.67 "Hg (Mar 26, 4:00 PM)
Average42 °F65%30.26 "Hg
* Reported Mar 12 3:00 AM — Mar 27 3:00 AM, Koszalin, Weather by CustomWeather, © 2015

Note: Actual official high and low records may vary slightly from our data, if they occured in-between our weather recording intervals... More about our weather records

Advertising

Koszalin weather history for previous 24 hours

 ConditionsComfort  
Time TempWeatherWind HumidityBarometerVisibility
3:00 AM
Fri, Mar 27
40 °FFog.2 mph89%29.77 "Hg5 mi
2:00 AM40 °FFog.2 mph92%29.77 "Hg4 mi
1:00 AM40 °FFog.3 mph90%29.77 "Hg4 mi
12:00 AM40 °FFog.2 mph90%29.75 "Hg5 mi
11:00 PM
Thu, Mar 26
41 °FFog.3 mph92%29.75 "Hg4 mi
10:00 PM41 °FFog.3 mph92%29.74 "Hg4 mi
9:00 PM41 °FLow clouds.3 mph94%29.74 "Hg2 mi
8:00 PM41 °FLight rain. Low clouds.5 mph96%29.73 "Hg1 mi
7:00 PM41 °FLight rain. Low clouds.5 mph94%29.72 "Hg1 mi
6:00 PM42 °FLight rain. Low clouds.6 mph93%29.70 "Hg1 mi
5:00 PM50 °FLight rain. Low clouds.2 mph93%29.67 "Hg2 mi
4:00 PM50 °FLight rain. Low clouds.1 mph93%29.67 "Hg1 mi
3:00 PM50 °FLight rain. Low clouds.1 mph92%29.67 "Hg2 mi
2:00 PM51 °FLight rain. Overcast.2 mph90%29.67 "Hg2 mi
1:00 PM51 °FLight rain. Overcast.2 mph82%29.68 "Hg4 mi
12:00 PM51 °FLight rain. Overcast.2 mph83%29.69 "Hg4 mi
11:00 AM51 °FLight rain. Overcast.5 mph69%29.70 "Hg5 mi
10:00 AM53 °FOvercast.5 mph58%29.71 "Hg5 mi
9:00 AM51 °FOvercast.5 mph60%29.71 "Hg6 mi
8:00 AM49 °FOvercast.5 mph62%29.71 "Hg6 mi
7:00 AM49 °FOvercast.5 mph61%29.72 "Hg6 mi
6:00 AM49 °FOvercast.5 mph62%29.72 "Hg6 mi
5:00 AM49 °FOvercast.6 mph60%29.73 "Hg6 mi
Weather by CustomWeather, © 2015

See weather overviewHow to use our weather pages